Index of /shared/routes/3a4db3e2f2c80ed1413af80dbb8a5a15

[ICO]NameLast modifiedSizeDescription

[PARENTDIR]Parent Directory  -  
[   ]150917-1755-Untitled.kmz2015-09-18 02:07 25K 
[   ]150917-1755-Untitled.kmz.php2015-09-18 02:07 606  
[IMG]150917-1755-Untitled.kmz.png2015-09-18 02:07 0  
[   ]150918-0832-Untitled.kmz2015-09-18 13:50 26K 
[   ]150918-0832-Untitled.kmz.php2015-09-18 13:50 623  
[IMG]150918-0832-Untitled.kmz.png2015-09-18 13:50 0  
[   ]160104-1019-Untitled.kmz2016-01-04 16:58 30K 
[   ]160104-1019-Untitled.kmz.php2016-01-04 16:58 620  
[IMG]160104-1019-Untitled.kmz.png2016-01-04 16:58 0  
[   ]160108-0754-Untitled.kmz2016-01-08 14:34 32K 
[   ]160108-0754-Untitled.kmz.php2016-01-08 14:34 621  
[IMG]160108-0754-Untitled.kmz.png2016-01-08 14:34 0  
[   ]160109-1019-Untitled.kmz2016-01-09 16:49 30K 
[   ]160109-1019-Untitled.kmz.php2016-01-09 16:49 604  
[IMG]160109-1019-Untitled.kmz.png2016-01-09 16:49 0  
[   ]161211-1511-Untitled.kmz2017-07-13 19:25 45K 
[   ]161211-1511-Untitled.kmz.php2017-07-13 19:25 627  
[IMG]161211-1511-Untitled.kmz.png2017-07-13 19:25 0  
[   ]170202-0950-Untitled.kmz2017-02-02 20:10 34K 
[   ]170202-0950-Untitled.kmz.php2017-02-02 20:10 621  
[IMG]170202-0950-Untitled.kmz.png2017-02-02 20:10 0  
[   ]170714-1236-Untitled.kmz2017-07-14 19:23 49K 
[   ]170714-1236-Untitled.kmz.php2017-07-14 19:23 617  
[IMG]170714-1236-Untitled.kmz.png2017-07-14 19:23 0  
[   ]170816-1001-Untitled.kmz2017-08-16 21:14 37K 
[   ]170816-1001-Untitled.kmz.php2017-08-16 21:14 598  
[IMG]170816-1001-Untitled.kmz.png2017-08-16 21:14 0  
[   ]180403-1043-Untitled.kmz2018-04-03 16:53 37K 
[   ]180403-1043-Untitled.kmz.php2018-04-03 16:53 598  
[IMG]180403-1043-Untitled.kmz.png2018-04-03 16:53 0  
[   ]190625-1008-Untitled.kmz2019-06-25 16:06 38K 
[   ]190625-1008-Untitled.kmz.php2019-06-25 16:06 600  
[IMG]190625-1008-Untitled.kmz.png2019-06-25 16:06 0  

Apache/2.4.29 (Ubuntu) Server at kineticgps.com Port 80